Tracking 25612 objects as of 20-May-2022
HD Live streaming from Space Station
objects crossing your sky now

FREGAT R/B

Track FREGAT R/B now!


NORAD ID: 40130
Int'l Code: 2014-050C
Perigee: 13,608.0 km
Apogee: 25,996.4 km
Inclination: 49.7 °
Period: 702.3 minutes
Semi major axis: 26173 km
RCS: Unknown
Launch date: August 22, 2014
Source: Commonwealth of Independent States (former USSR) (CIS)
Launch site: FRENCH GUIANA (FRGUI)

Note: This is a ROCKET BODY
aabbcc
Your satellite tracking list
Your tracking list is empty




NASA's NSSDC Master Catalog

Two Line Element Set (TLE):
1 40130U 14050C   22139.55764044 -.00000048  00000-0  00000-0 0  9993
2 40130  49.6714 296.9915 2366609 154.8222 218.9101  2.05030278 57975
Source of the keplerian elements: AFSPC